QPF
0.01 0.01 0.01 0.01 0.01 0.01 0.01 0.01 0.02 0.02 0.01 0.00 0.00 0.00 0.00 0.00 0.00 0.00 0.00 0.00 0.00 0.00 0.00 0.00 0.00 0.00 0.00 0.00 0.00 0.00 0.01 0.01 0.01 0.01 0.01 0.02 0.02 0.02
0.00 0.00 0.00 0.00 0.00 0.00 0.00 0.01 0.01 0.01 0.01 0.00 0.00 0.00 0.00 0.00 0.00 0.00 0.00 0.00 0.00 0.00 0.00 0.00 0.00 0.00 0.00 0.00 0.00 0.01 0.01 0.01 0.01 0.01 0.02 0.02 0.02 0.02
0.00 0.00 0.00 0.00 0.00 0.00 0.00 0.00 0.01 0.01 0.01 0.01 0.00 0.00 0.00 0.00 0.00 0.00 0.00 0.00 0.00 0.00 0.00 0.00 0.00 0.00 0.00 0.00 0.01 0.01 0.01 0.01 0.01 0.01 0.02 0.02 0.02 0.03
0.00 0.00 0.00 0.00 0.00 0.00 0.00 0.00 0.01 0.01 0.01 0.01 0.01 0.01 0.00 0.01 0.01 0.01 0.00 0.00 0.00 0.00 0.00 0.00 0.00 0.00 0.00 0.00 0.01 0.01 0.01 0.01 0.01 0.01 0.02 0.02 0.03 0.03
0.00 0.00 0.00 0.00 0.00 0.00 0.00 0.00 0.00 0.00 0.00 0.00 0.01 0.01 0.01 0.01 0.01 0.00 0.00 0.00 0.00 0.00 0.00 0.00 0.00 0.00 0.00 0.01 0.01 0.01 0.01 0.01 0.01 0.01 0.02 0.02 0.02 0.03
0.00 0.00 0.00 0.00 0.00 0.00 0.00 0.00 0.00 0.00 0.00 0.01 0.01 0.02 0.02 0.01 0.01 0.01 0.00 0.00 0.00 0.00 0.00 0.00 0.00 0.00 0.00 0.00 0.00 0.00 0.01 0.01 0.01 0.01 0.02 0.02 0.02 0.02
0.00 0.00 0.00 0.00 0.00 0.00 0.01 0.01 0.01 0.01 0.01 0.02 0.02 0.02 0.01 0.01 0.01 0.01 0.01 0.00 0.00 0.00 0.00 0.00 0.00 0.00 0.00 0.00 0.00 0.00 0.01 0.01 0.01 0.01 0.02 0.02 0.02 0.02
0.00 0.00 0.00 0.00 0.00 0.00 0.01 0.01 0.01 0.01 0.02 0.02 0.02 0.02 0.01 0.01 0.01 0.01 0.01 0.01 0.01 0.00 0.00 0.00 0.00 0.00 0.00 0.00 0.00 0.00 0.01 0.01 0.01 0.01 0.02 0.02 0.02 0.03
0.00 0.00 0.00 0.00 0.00 0.00 0.01 0.01 0.01 0.01 0.01 0.01 0.01 0.01 0.01 0.01 0.02 0.02 0.02 0.02 0.01 0.01 0.01 0.02 0.01 0.01 0.00 0.00 0.00 0.00 0.01 0.01 0.01 0.02 0.02 0.02 0.02 0.03
0.00 0.00 0.00 0.00 0.00 0.01 0.01 0.01 0.01 0.01 0.01 0.01 0.01 0.01 0.01 0.01 0.01 0.02 0.02 0.02 0.01 0.01 0.01 0.02 0.01 0.00 0.00 0.00 0.00 0.01 0.01 0.01 0.02 0.02 0.02 0.02 0.02 0.02
0.00 0.00 0.00 0.00 0.01 0.01 0.01 0.01 0.01 0.00 0.01 0.01 0.01 0.01 0.02 0.02 0.02 0.03 0.03 0.04 0.03 0.01 0.01 0.02 0.01 0.01 0.00 0.00 0.00 0.01 0.01 0.01 0.01 0.01 0.02 0.02 0.02 0.02
0.00 0.00 0.00 0.00 0.01 0.01 0.01 0.01 0.01 0.01 0.01 0.01 0.01 0.01 0.01 0.01 0.01 0.02 0.02 0.03 0.03 0.02 0.01 0.01 0.01 0.01 0.01 0.00 0.00 0.00 0.00 0.00 0.01 0.01 0.01 0.01 0.01 0.01
0.00 0.00 0.00 0.00 0.01 0.01 0.01 0.01 0.01 0.01 0.01 0.01 0.01 0.01 0.01 0.01 0.01 0.01 0.01 0.02 0.02 0.02 0.01 0.01 0.02 0.02 0.02 0.01 0.00 0.00 0.01 0.01 0.00 0.00 0.00 0.00 0.01 0.01
0.00 0.00 0.00 0.00 0.01 0.01 0.01 0.00 0.01 0.01 0.01 0.01 0.01 0.01 0.01 0.01 0.01 0.01 0.01 0.00 0.01 0.01 0.01 0.01 0.02 0.02 0.03 0.02 0.01 0.01 0.01 0.01 0.01 0.01 0.00 0.00 0.00 0.01
0.00 0.00 0.00 0.00 0.00 0.00 0.00 0.00 0.01 0.01 0.01 0.02 0.02 0.02 0.01 0.01 0.01 0.01 0.01 0.01 0.01 0.01 0.01 0.01 0.01 0.02 0.02 0.03 0.02 0.01 0.01 0.00 0.00 0.00 0.00 0.00 0.00 0.00
0.00 0.00 0.00 0.00 0.00 0.00 0.00 0.01 0.01 0.01 0.01 0.01 0.01 0.01 0.01 0.01 0.01 0.01 0.01 0.01 0.01 0.01 0.00 0.00 0.01 0.01 0.02 0.02 0.02 0.01 0.01 0.01 0.01 0.00 0.00 0.00 0.00 0.01
0.00 0.00 0.00 0.00 0.01 0.01 0.01 0.01 0.02 0.01 0.01 0.01 0.01 0.01 0.01 0.01 0.00 0.00 0.01 0.01 0.01 0.01 0.01 0.01 0.01 0.01 0.01 0.01 0.01 0.01 0.01 0.01 0.00 0.00 0.01 0.01 0.00 0.00
0.00 0.01 0.01 0.01 0.01 0.01 0.01 0.01 0.01 0.01 0.01 0.01 0.01 0.01 0.01 0.01 0.01 0.01 0.01 0.01 0.01 0.01 0.01 0.01 0.01 0.01 0.01 0.01 0.01 0.01 0.01 0.01 0.00 0.01 0.01 0.01 0.01 0.00
0.01 0.01 0.01 0.01 0.01 0.01 0.01 0.01 0.01 0.00 0.00 0.01 0.01 0.01 0.01 0.01 0.01 0.01 0.01 0.01 0.01 0.01 0.01 0.01 0.01 0.02 0.02 0.01 0.01 0.00 0.01 0.01 0.01 0.01 0.01 0.01 0.01 0.01
0.00 0.00 0.00 0.00 0.00 0.00 0.01 0.01 0.00 0.00 0.00 0.01 0.01 0.00 0.01 0.01 0.01 0.01 0.01 0.01 0.01 0.01 0.01 0.01 0.01 0.02 0.03 0.02 0.02 0.01 0.00 0.01 0.02 0.02 0.01 0.01 0.01 0.01
0.00 0.00 0.00 0.00 0.00 0.00 0.00 0.00 0.00 0.00 0.00 0.00 0.01 0.01 0.01 0.01 0.01 0.01 0.01 0.01 0.01 0.01 0.01 0.01 0.01 0.01 0.01 0.02 0.02 0.01 0.00 0.00 0.01 0.02 0.02 0.02 0.02 0.01
0.00 0.00 0.00 0.00 0.00 0.00 0.00 0.00 0.00 0.00 0.00 0.01 0.01 0.01 0.01 0.01 0.01 0.01 0.01 0.01 0.01 0.01 0.01 0.00 0.00 0.01 0.01 0.02 0.02 0.01 0.00 0.00 0.01 0.01 0.02 0.03 0.04 0.04
0.00 0.00 0.00 0.00 0.00 0.00 0.00 0.00 0.00 0.00 0.01 0.01 0.01 0.01 0.01 0.01 0.01 0.01 0.01 0.01 0.01 0.01 0.01 0.01 0.01 0.01 0.01 0.01 0.01 0.01 0.01 0.01 0.01 0.01 0.01 0.01 0.01 0.02
MSLP
1013.88 1014.19 1014.52 1014.85 1015.13 1015.31 1015.37 1015.30 1015.08 1014.76 1014.36 1013.94 1013.56 1013.26 1013.07 1013.02 1013.10 1013.29 1013.57 1013.90 1014.24 1014.55 1014.82 1015.02 1015.15 1015.22 1015.24 1015.22 1015.18 1015.13 1015.07 1015.01 1014.95 1014.87 1014.78 1014.67 1014.52 1014.36
1013.15 1013.42 1013.73 1014.05 1014.33 1014.55 1014.66 1014.63 1014.48 1014.22 1013.86 1013.47 1013.10 1012.78 1012.56 1012.45 1012.47 1012.60 1012.81 1013.09 1013.40 1013.70 1013.97 1014.20 1014.37 1014.48 1014.55 1014.58 1014.58 1014.55 1014.51 1014.45 1014.38 1014.28 1014.16 1014.01 1013.85 1013.67
1012.43 1012.66 1012.94 1013.23 1013.52 1013.76 1013.92 1013.97 1013.91 1013.73 1013.46 1013.14 1012.81 1012.50 1012.26 1012.11 1012.05 1012.10 1012.23 1012.43 1012.67 1012.92 1013.17 1013.39 1013.58 1013.73 1013.84 1013.91 1013.94 1013.94 1013.91 1013.85 1013.76 1013.64 1013.50 1013.33 1013.15 1012.97
1011.77 1011.94 1012.17 1012.44 1012.72 1012.98 1013.19 1013.31 1013.35 1013.27 1013.11 1012.89 1012.62 1012.35 1012.11 1011.92 1011.81 1011.77 1011.81 1011.91 1012.07 1012.26 1012.46 1012.66 1012.84 1013.01 1013.14 1013.23 1013.29 1013.31 1013.28 1013.22 1013.12 1012.99 1012.83 1012.65 1012.47 1012.30
1011.17 1011.29 1011.47 1011.69 1011.95 1012.22 1012.46 1012.65 1012.77 1012.80 1012.75 1012.63 1012.44 1012.22 1012.00 1011.81 1011.65 1011.55 1011.51 1011.53 1011.60 1011.72 1011.87 1012.03 1012.20 1012.35 1012.48 1012.58 1012.64 1012.66 1012.63 1012.56 1012.45 1012.31 1012.15 1011.98 1011.82 1011.67
1010.68 1010.75 1010.86 1011.03 1011.25 1011.50 1011.75 1011.98 1012.16 1012.28 1012.32 1012.28 1012.18 1012.03 1011.84 1011.66 1011.48 1011.35 1011.25 1011.21 1011.23 1011.29 1011.39 1011.51 1011.65 1011.78 1011.89 1011.97 1012.01 1012.01 1011.97 1011.88 1011.76 1011.62 1011.47 1011.32 1011.19 1011.07
1010.32 1010.32 1010.37 1010.48 1010.64 1010.84 1011.07 1011.30 1011.51 1011.67 1011.77 1011.80 1011.76 1011.67 1011.53 1011.38 1011.22 1011.08 1010.97 1010.91 1010.89 1010.92 1010.99 1011.08 1011.18 1011.27 1011.35 1011.39 1011.40 1011.36 1011.28 1011.18 1011.05 1010.91 1010.78 1010.66 1010.56 1010.49
1010.09 1010.03 1010.02 1010.05 1010.13 1010.27 1010.44 1010.63 1010.82 1010.98 1011.09 1011.16 1011.17 1011.12 1011.03 1010.92 1010.80 1010.68 1010.60 1010.54 1010.53 1010.56 1010.61 1010.68 1010.75 1010.81 1010.83 1010.83 1010.78 1010.70 1010.59 1010.45 1010.31 1010.18 1010.07 1009.99 1009.94 1009.91
1009.98 1009.88 1009.80 1009.75 1009.75 1009.80 1009.89 1010.00 1010.13 1010.25 1010.35 1010.41 1010.43 1010.41 1010.36 1010.29 1010.21 1010.15 1010.11 1010.09 1010.11 1010.15 1010.21 1010.27 1010.32 1010.35 1010.33 1010.27 1010.17 1010.04 1009.88 1009.72 1009.58 1009.45 1009.36 1009.32 1009.31 1009.31
1009.98 1009.83 1009.70 1009.58 1009.50 1009.46 1009.45 1009.47 1009.51 1009.56 1009.60 1009.62 1009.63 1009.61 1009.58 1009.54 1009.51 1009.49 1009.51 1009.54 1009.61 1009.68 1009.76 1009.83 1009.87 1009.87 1009.81 1009.71 1009.57 1009.39 1009.20 1009.03 1008.87 1008.76 1008.69 1008.67 1008.69 1008.73
1010.04 1009.87 1009.70 1009.53 1009.38 1009.26 1009.16 1009.09 1009.03 1008.99 1008.95 1008.91 1008.87 1008.83 1008.79 1008.77 1008.77 1008.80 1008.85 1008.94 1009.05 1009.16 1009.27 1009.35 1009.39 1009.37 1009.30 1009.17 1008.99 1008.79 1008.59 1008.40 1008.25 1008.15 1008.10 1008.10 1008.13 1008.18
1010.14 1009.97 1009.78 1009.58 1009.39 1009.20 1009.03 1008.87 1008.73 1008.60 1008.48 1008.37 1008.27 1008.19 1008.12 1008.09 1008.10 1008.14 1008.22 1008.34 1008.48 1008.62 1008.75 1008.85 1008.89 1008.88 1008.80 1008.67 1008.49 1008.29 1008.09 1007.90 1007.76 1007.67 1007.62 1007.63 1007.66 1007.69
1010.24 1010.08 1009.90 1009.70 1009.49 1009.27 1009.05 1008.84 1008.63 1008.43 1008.23 1008.05 1007.89 1007.75 1007.65 1007.59 1007.57 1007.61 1007.69 1007.82 1007.96 1008.12 1008.26 1008.37 1008.43 1008.43 1008.37 1008.25 1008.09 1007.90 1007.72 1007.55 1007.42 1007.33 1007.29 1007.27 1007.28 1007.28
1010.33 1010.20 1010.04 1009.85 1009.65 1009.43 1009.20 1008.96 1008.71 1008.46 1008.21 1007.98 1007.76 1007.56 1007.41 1007.30 1007.25 1007.26 1007.32 1007.42 1007.56 1007.71 1007.85 1007.97 1008.04 1008.06 1008.02 1007.93 1007.80 1007.65 1007.50 1007.35 1007.23 1007.14 1007.08 1007.03 1006.99 1006.93
1010.40 1010.30 1010.18 1010.02 1009.85 1009.65 1009.43 1009.18 1008.92 1008.65 1008.38 1008.10 1007.84 1007.60 1007.40 1007.24 1007.15 1007.11 1007.13 1007.20 1007.30 1007.43 1007.56 1007.67 1007.75 1007.79 1007.78 1007.73 1007.64 1007.52 1007.40 1007.27 1007.16 1007.05 1006.95 1006.86 1006.75 1006.61
1010.46 1010.39 1010.29 1010.18 1010.03 1009.87 1009.67 1009.44 1009.19 1008.93 1008.64 1008.35 1008.07 1007.80 1007.57 1007.37 1007.23 1007.15 1007.12 1007.14 1007.21 1007.30 1007.41 1007.51 1007.59 1007.63 1007.65 1007.62 1007.56 1007.47 1007.37 1007.25 1007.12 1006.99 1006.84 1006.68 1006.49 1006.26
1010.50 1010.45 1010.38 1010.29 1010.18 1010.04 1009.87 1009.68 1009.45 1009.20 1008.94 1008.66 1008.37 1008.10 1007.85 1007.63 1007.46 1007.33 1007.26 1007.24 1007.26 1007.32 1007.39 1007.46 1007.53 1007.58 1007.59 1007.58 1007.54 1007.46 1007.35 1007.23 1007.07 1006.89 1006.68 1006.44 1006.16 1005.84
1010.52 1010.48 1010.43 1010.36 1010.26 1010.15 1010.01 1009.84 1009.64 1009.43 1009.19 1008.93 1008.67 1008.41 1008.17 1007.95 1007.76 1007.61 1007.51 1007.45 1007.43 1007.44 1007.48 1007.52 1007.56 1007.59 1007.59 1007.57 1007.52 1007.43 1007.30 1007.14 1006.94 1006.70 1006.42 1006.09 1005.73 1005.32
1010.53 1010.49 1010.43 1010.36 1010.27 1010.17 1010.05 1009.90 1009.74 1009.56 1009.36 1009.14 1008.91 1008.69 1008.47 1008.26 1008.07 1007.92 1007.80 1007.71 1007.66 1007.64 1007.63 1007.64 1007.64 1007.64 1007.62 1007.56 1007.48 1007.35 1007.19 1006.98 1006.72 1006.41 1006.05 1005.65 1005.20 1004.73
1010.51 1010.46 1010.39 1010.31 1010.22 1010.12 1010.00 1009.88 1009.75 1009.60 1009.44 1009.27 1009.08 1008.90 1008.71 1008.53 1008.36 1008.21 1008.09 1007.99 1007.91 1007.85 1007.81 1007.78 1007.75 1007.70 1007.63 1007.54 1007.41 1007.24 1007.02 1006.75 1006.43 1006.05 1005.62 1005.15 1004.64 1004.10
1010.45 1010.38 1010.29 1010.20 1010.10 1010.00 1009.89 1009.79 1009.68 1009.57 1009.44 1009.31 1009.18 1009.03 1008.88 1008.73 1008.59 1008.45 1008.32 1008.22 1008.12 1008.04 1007.97 1007.91 1007.83 1007.75 1007.64 1007.51 1007.33 1007.11 1006.84 1006.51 1006.13 1005.70 1005.21 1004.68 1004.12 1003.54
1010.33 1010.24 1010.14 1010.04 1009.93 1009.83 1009.74 1009.65 1009.57 1009.48 1009.40 1009.31 1009.20 1009.10 1008.98 1008.85 1008.73 1008.60 1008.48 1008.37 1008.27 1008.18 1008.09 1007.99 1007.90 1007.78 1007.65 1007.48 1007.27 1007.01 1006.70 1006.34 1005.91 1005.43 1004.91 1004.33 1003.73 1003.12
1010.14 1010.04 1009.94 1009.83 1009.73 1009.64 1009.56 1009.49 1009.42 1009.37 1009.31 1009.24 1009.17 1009.09 1008.99 1008.88 1008.77 1008.65 1008.54 1008.43 1008.32 1008.23 1008.13 1008.03 1007.93 1007.80 1007.66 1007.48 1007.26 1006.99 1006.66 1006.27 1005.83 1005.33 1004.77 1004.18 1003.55 1002.91
Thickness
5574 5567 5561 5556 5549 5543 5536 5529 5521 5520 5522 5520 5513 5510 5504 5499 5493 5487 5481 5475 5469 5464 5458 5454 5449 5444 5440 5436 5432 5429 5426 5424 5422 5420 5419 5418 5418 5419
5568 5561 5555 5549 5543 5536 5529 5522 5515 5509 5510 5510 5504 5499 5494 5489 5482 5476 5470 5464 5458 5452 5447 5442 5437 5432 5427 5422 5418 5414 5411 5409 5406 5404 5403 5402 5402 5402
5562 5556 5550 5543 5536 5529 5522 5515 5508 5500 5498 5500 5492 5487 5481 5475 5470 5464 5458 5452 5445 5439 5434 5428 5423 5418 5413 5408 5403 5399 5396 5393 5390 5388 5386 5385 5385 5385
5556 5549 5543 5536 5529 5522 5514 5507 5500 5493 5486 5485 5482 5475 5469 5463 5457 5451 5445 5438 5432 5426 5420 5414 5409 5403 5398 5393 5388 5384 5380 5376 5374 5372 5370 5369 5368 5368
5550 5542 5536 5528 5521 5514 5507 5499 5492 5485 5477 5472 5469 5462 5456 5450 5443 5437 5431 5424 5418 5412 5406 5400 5394 5388 5383 5378 5373 5368 5365 5362 5359 5356 5353 5352 5351 5351
5542 5535 5528 5521 5514 5506 5498 5491 5482 5474 5466 5459 5454 5449 5442 5436 5428 5421 5416 5410 5404 5398 5392 5385 5379 5373 5368 5363 5359 5354 5350 5347 5343 5340 5338 5336 5335 5334
5534 5527 5520 5513 5507 5498 5490 5481 5472 5463 5454 5447 5441 5435 5428 5421 5414 5408 5402 5397 5391 5384 5377 5371 5364 5359 5353 5348 5343 5339 5336 5332 5329 5326 5324 5322 5320 5320
5524 5518 5511 5504 5496 5489 5481 5473 5464 5454 5444 5436 5429 5421 5416 5408 5401 5394 5386 5380 5375 5371 5362 5357 5349 5344 5339 5334 5329 5326 5322 5319 5316 5314 5311 5309 5308 5308
5514 5507 5501 5494 5485 5477 5469 5462 5453 5444 5436 5427 5418 5410 5403 5396 5388 5380 5371 5363 5358 5352 5345 5342 5335 5329 5325 5320 5316 5313 5310 5307 5305 5303 5301 5299 5298 5298
5504 5497 5489 5481 5474 5466 5458 5449 5440 5433 5425 5416 5408 5400 5392 5384 5375 5367 5359 5352 5345 5336 5329 5324 5321 5315 5312 5308 5304 5301 5298 5296 5294 5292 5291 5290 5290 5290
5493 5485 5477 5470 5463 5456 5447 5437 5429 5421 5413 5405 5397 5389 5381 5372 5363 5353 5343 5334 5329 5323 5315 5307 5305 5302 5299 5296 5292 5289 5287 5285 5283 5282 5282 5282 5282 5282
5481 5474 5467 5459 5452 5444 5434 5424 5416 5409 5401 5393 5384 5376 5367 5358 5349 5339 5329 5319 5312 5307 5302 5294 5290 5285 5286 5285 5281 5278 5275 5274 5274 5274 5274 5274 5274 5274
5469 5461 5454 5448 5440 5432 5423 5414 5406 5399 5389 5380 5371 5362 5353 5344 5335 5325 5316 5307 5299 5292 5287 5281 5277 5271 5267 5270 5271 5268 5266 5265 5265 5265 5266 5266 5266 5266
5458 5450 5442 5436 5428 5420 5411 5404 5396 5386 5375 5366 5357 5348 5339 5330 5321 5313 5305 5296 5289 5282 5276 5270 5265 5261 5258 5258 5259 5260 5259 5258 5257 5258 5258 5258 5259 5259
5447 5440 5432 5424 5416 5407 5399 5391 5382 5371 5361 5351 5342 5333 5324 5316 5308 5300 5293 5286 5279 5273 5267 5262 5257 5254 5250 5249 5250 5250 5250 5252 5251 5251 5251 5251 5252 5254
5433 5426 5419 5411 5403 5394 5386 5376 5367 5357 5347 5337 5328 5319 5311 5302 5295 5288 5281 5274 5269 5264 5259 5255 5251 5247 5245 5244 5242 5243 5242 5242 5245 5245 5246 5248 5249 5250
5421 5412 5404 5395 5387 5379 5370 5362 5352 5343 5333 5324 5314 5306 5298 5290 5283 5276 5270 5265 5258 5254 5251 5249 5245 5243 5241 5239 5238 5238 5238 5238 5239 5239 5241 5245 5248 5249
5410 5400 5391 5383 5375 5366 5357 5348 5338 5329 5320 5311 5302 5293 5286 5279 5272 5266 5261 5255 5250 5247 5244 5241 5239 5237 5236 5236 5236 5234 5234 5234 5235 5236 5238 5240 5246 5249
5396 5387 5379 5370 5362 5353 5344 5334 5325 5317 5308 5299 5291 5282 5275 5268 5262 5257 5252 5247 5243 5241 5238 5235 5232 5229 5228 5229 5231 5232 5230 5231 5233 5235 5237 5238 5242 5248
5383 5375 5366 5358 5349 5340 5331 5322 5313 5305 5297 5289 5280 5272 5265 5258 5253 5248 5243 5239 5236 5234 5231 5228 5225 5223 5222 5223 5225 5228 5229 5229 5231 5234 5237 5240 5243 5248
5371 5363 5354 5346 5337 5328 5320 5311 5303 5295 5287 5279 5271 5264 5257 5250 5245 5240 5236 5234 5230 5227 5225 5223 5221 5221 5219 5219 5220 5224 5228 5229 5230 5233 5236 5240 5243 5247
5359 5351 5342 5334 5325 5317 5309 5301 5293 5286 5278 5270 5263 5256 5249 5243 5238 5234 5230 5226 5223 5221 5219 5218 5218 5217 5215 5216 5217 5221 5224 5229 5232 5235 5237 5239 5240 5245
5347 5339 5330 5322 5314 5306 5299 5291 5284 5277 5270 5262 5255 5249 5243 5237 5232 5228 5224 5222 5219 5216 5215 5214 5213 5213 5213 5213 5214 5218 5221 5225 5229 5233 5237 5241 5243 5246